Powrót do katalogu

SL-14 DEB

AktywnyPO
NORAD 25444·DEBRIS·🇷🇺 Russia

Wystrzelony Aug 18, 1987 z Plesetsk Cosmodrome

Loading…

Następne Przeloty (najbliższe 24 godziny)

TLE

ŚwieżeSource: Space-Track

Epoka: Sep 14, 2026, 10:23 UTC

1 25444U 87068BX  26257.43266059  .00000442  00000-0  30474-3 0  9996
2 25444  82.5551 125.9220 0017515 137.6568  38.0367 13.97167612438750

Śledź SL-14 DEB w czasie rzeczywistym z AllMySat

Download on the App Store